Regional Weather Roundup
Issued by NWS

Home | Current Version | Previous Version | Graphics & Text | Print | Product List | Glossary On
Versions: 1 2 3 4 5 6 7 8 9 10 11 12 13 14 15 16 17 18 19 20 21 22 23 24 25 26 27 28 29 30 31 32 33 34 35 36 37 38 39 40 41 42 43 44 45 46 47 48 49 50
000
ASUS43 KLSX 222210
RWRMO

WEATHER SUMMARY FOR MISSOURI
NATIONAL WEATHER SERVICE SPRINGFIELD MO
500 PM CDT THU JUN 22 2017

NOTE: "FAIR" INDICATES FEW OR NO CLOUDS BELOW 12,000 FEET WITH NO
       SIGNIFICANT WEATHER AND/OR OBSTRUCTIONS TO VISIBILITY.
       CURRENT SKY AND/OR WEATHER CONDITIONS ARE NOT AVAILABLE FOR
       CHILLICOTHE AND FARMINGTON.

MOZ001>031-035>038-043-044-053-054-222300-
...NORTHERN AND WESTERN MISSOURI...

CITY           SKY/WX    TMP DP  RH WIND       PRES   REMARKS
KANSAS CTY INT PTSUNNY   84  72  67 S13       29.67F
KANSAS C DTWN  MOSUNNY   87  72  60 S14G21    29.66F HX  93
LEE`S SUMMIT   PTSUNNY   85  72  65 S14       29.69F HX  91
ST JOSEPH      MOSUNNY   89  72  56 S16       29.64F HX  96
CHILLICOTHE      N/A     86  73  65 S9G17     29.69F HX  93
KIRKSVILLE     CLOUDY    83  72  69 S14       29.72F

$$
MOZ066>068-077>081-088>096-101>105-222300-
...SOUTHWEST MISSOURI...

CITY           SKY/WX    TMP DP  RH WIND       PRES   REMARKS
SPRINGFIELD    PTSUNNY   84  72  67 S13       29.71F
JOPLIN         MOSUNNY   88  74  63 CALM      29.69F HX  96
BRANSON        PTSUNNY   84  73  70 SE13      29.74F HX  91

$$
MOZ032>034-039>042-045>050-055>058-069>072-222300-
...CENTRAL MISSOURI...

CITY           SKY/WX    TMP DP  RH WIND       PRES   REMARKS
COLUMBIA       CLOUDY    84  74  71 S9        29.73F HX  91
JEFFERSON CITY CLOUDY    85  71  63 SE7       29.71F HX  90
ROLLA          CLOUDY    82  73  74 S10       29.75S
SEDALIA        CLOUDY    85  76  74 S12       29.72F HX  94
WHITEMAN AFB     N/A     84  77  79 S9        29.69F HX  94
WARRENSBURG    CLOUDY    84  72  65 SE10      29.69F
OSAGE BEACH    CLOUDY    83  73  72 S6        29.73F

$$
MOZ051-052-059>065-222300-
...EAST CENTRAL MISSOURI...

CITY           SKY/WX    TMP DP  RH WIND       PRES   REMARKS
ST LOUIS INTL  PTSUNNY   85  71  63 S10       29.76F HX  90
SPIRIT OF STL  PTSUNNY   84  73  69 SE8       29.74S HX  90
ST CHARLES     CLOUDY    83  72  69 MISG      29.74F

$$
MOZ072>076-082>087-097>100-106>115-222300-
...SOUTH CENTRAL AND SOUTHEAST MISSOURI...

CITY           SKY/WX    TMP DP  RH WIND       PRES   REMARKS
CAPE GIRARDEAU CLOUDY    82  74  76 SE12      29.77F
FARMINGTON     CLOUDY    81  73  76 S10       29.79S
POPLAR BLUFF   MOSUNNY   86  76  71 SE8       29.73F HX  96
WEST PLAINS    MOSUNNY   86  72  62 SE8       29.76F HX  92

$$




USA.gov is the U.S. government's official web portal to all federal, state and local government web resources and services.